ROMMA est une association bénévole à but non lucratif. Votre soutien est indispensable : ADHERER à ROMMA ou FAIRE un DON

Chambon - (38, Isère)

Oisans (2460 m)   Longitude: 06° 10' 42" E   Latitude: 45° 01' 32" N Station partenaire n°803
 

Détail journalier du     <<     >>

Température Humidité Vent Dir Rafale Dir. rafale Neige 1 Neige 2
Heure (°C) (%) (km/h) (km/h) (cm) (cm)
01:00 -10.97834NNE56NNE172208
02:00 -11.17737NE53NE172208
03:00 -11.07638NE59NE172208
04:00 -11.47328NE54NE172207
05:00 -11.57421NE36NE172207
06:00 -10.85928NE45NE172207
07:00 -10.75831NE45NE172207
08:00 -10.45523NE55NE172207
09:00 -9.34738NNE62NNE172207
10:00 -8.53939NNE66NNE172206
11:00 -7.63340NNE78NE171206
12:00 -6.93141NE76NE171205
13:00 -6.74139NE73NE172203
14:00 -5.75219N56NNE172203
15:00 -4.6486N23NNO172203
16:00 -5.4568N24N172203
17:00 -5.35612N26NNE172203
18:00 -6.46616NNE26NE172203
19:00 -5.95815NE25NE172203
20:00 -6.76416NE25NE172203
21:00 -6.15417NE25NE172203
22:00 -6.35417NNE27NE172203
23:00 -4.93824NNE40NE172203
minuit -4.43323NE41NE172203

Graphique du 26-03-2019

 

Serveur OMMA